Theta_e
304 304 304 304 304 304 305 305 305 305 306 305 300 302 298 296 307 308 308 308 309 308 311 313 311 314 316 322 320 319 329 329 328 329 327 325 327 325 324 331 336 337 337 336 336
304 304 304 304 304 304 305 305 305 305 304 301 299 296 298 296 308 305 303 306 305 304 310 314 314 314 321 324 325 324 331 330 326 326 327 326 324 325 329 332 337 339 334 334 335
304 304 304 303 303 304 304 305 305 305 302 298 297 296 295 295 307 306 299 299 297 300 308 313 314 313 320 323 326 323 330 329 326 325 325 325 322 321 328 331 333 337 337 333 332
302 303 303 303 303 303 303 304 304 305 304 301 297 295 295 294 298 298 300 299 297 299 309 312 312 313 320 324 326 324 322 324 327 323 321 323 323 323 325 328 326 328 335 333 334
302 302 303 303 302 303 303 304 304 304 302 300 299 296 295 296 297 299 300 299 299 300 307 311 312 313 319 318 321 326 324 321 322 321 320 319 322 324 323 323 321 326 330 335 335
302 302 302 301 301 302 302 304 303 301 298 299 302 296 297 296 298 299 298 298 299 301 303 307 308 310 314 315 317 315 318 326 324 321 321 321 323 320 323 323 322 326 328 333 336
301 299 299 297 302 301 297 296 297 294 295 301 300 298 297 297 299 299 297 297 297 301 301 302 305 311 312 313 313 313 320 325 326 324 322 322 326 323 325 323 326 329 330 330 334
300 298 298 301 302 298 296 295 293 295 297 302 299 297 297 298 299 297 296 298 298 300 298 302 304 308 311 312 312 317 318 327 325 326 324 323 331 327 324 323 326 327 329 332 330
297 297 299 299 298 297 296 294 293 296 295 300 299 299 298 297 296 297 298 298 298 298 302 302 304 308 310 310 309 314 314 320 322 325 325 325 328 327 326 325 325 326 326 329 332
299 298 299 299 298 296 296 293 293 294 294 297 295 296 297 297 297 297 298 298 298 299 300 305 306 307 308 308 303 305 312 315 320 318 320 327 327 326 324 324 324 325 326 326 329
302 301 300 299 298 295 296 293 296 297 296 297 296 296 297 297 297 298 298 298 298 299 299 301 301 300 301 304 307 310 311 314 314 313 312 317 322 326 324 324 323 324 325 325 327
303 302 301 300 297 295 294 297 296 296 297 295 295 296 296 297 298 298 299 299 299 299 299 298 297 299 300 302 307 308 309 310 310 310 311 314 316 317 320 324 325 325 324 323 323
301 302 302 299 297 295 296 296 296 295 297 294 294 297 299 298 298 298 299 299 298 298 298 298 297 299 297 297 299 301 305 306 311 311 310 311 313 313 314 317 321 322 323 323 322
301 302 302 298 296 294 295 296 296 295 298 294 296 298 297 296 297 297 299 299 299 299 299 298 296 299 300 297 297 299 300 304 307 311 312 310 309 311 312 314 317 320 322 323 322
302 302 301 297 296 297 295 295 296 293 295 293 295 294 296 297 297 298 298 299 299 298 299 298 298 299 300 299 298 297 304 305 306 308 311 312 312 308 309 311 314 316 320 322 322
302 302 299 297 296 295 294 295 292 301 296 293 294 295 296 296 297 297 298 299 299 300 299 300 299 300 300 300 302 301 302 302 304 305 309 307 311 309 308 312 313 315 316 319 321
303 301 298 297 297 295 294 292 301 297 291 296 295 295 295 296 296 297 295 297 297 299 299 298 299 299 300 301 302 302 302 299 304 304 303 304 308 308 308 310 313 313 315 317 319
302 299 296 295 294 294 291 299 296 288 290 292 295 295 295 294 295 294 296 295 298 299 300 300 300 299 300 301 299 300 301 299 300 303 300 300 306 308 309 308 310 310 310 313 317
300 296 295 295 294 293 296 299 297 291 293 295 295 294 294 292 293 294 294 295 297 299 298 299 299 298 298 299 299 299 301 300 302 302 306 304 304 305 308 308 310 311 311 311 314
298 295 295 295 294 292 299 296 292 291 294 296 296 293 295 293 294 294 294 294 298 298 298 297 297 297 300 299 300 298 298 303 304 301 301 304 305 305 307 307 307 310 312 311 309
296 297 294 294 293 295 298 292 289 290 294 296 295 296 295 295 292 295 294 294 295 298 298 295 297 298 301 302 301 302 301 299 303 305 302 302 303 306 307 307 306 306 308 309 309
293 298 293 294 295 286 293 286 290 293 292 294 295 296 296 294 295 295 295 294 296 298 296 296 297 296 296 298 299 302 302 301 302 300 300 303 304 305 305 306 306 307 307 305 305
295 293 292 292 297 292 286 289 291 293 294 294 295 296 296 296 295 294 295 294 294 297 296 296 296 297 295 299 302 302 302 302 302 303 304 304 300 303 303 302 303 306 305 304 302
294 296 291 288 283 290 288 289 291 292 293 294 295 294 296 295 295 295 295 294 295 296 296 296 297 296 296 296 296 296 297 297 298 301 301 303 302 300 301 301 302 304 303 302 301
292 294 288 294 291 288 288 288 291 292 292 293 294 294 294 293 294 295 295 295 295 295 296 297 296 295 296 296 296 296 296 296 297 298 300 301 300 303 302 303 303 304 303 300 299
293 291 286 283 287 289 289 291 291 291 292 292 294 293 295 293 295 292 293 293 293 293 294 295 295 293 293 293 294 296 296 297 298 299 298 300 301 302 302 302 302 303 303 301 299
288 287 293 289 288 288 291 291 290 291 292 291 293 293 293 294 294 294 294 294 293 294 294 295 295 294 293 292 293 295 294 295 297 299 299 300 301 301 302 302 303 303 302 301 299
Wind_Speed
16 16 16 16 17 16 16 18 20 20 21 22 22 22 21 15 8 9 10 14 14 19 16 13 4 7 4 3 2 2 7 11 13 11 7 4 5 3 1 3 3 2 2 2 23
16 16 17 17 15 14 13 15 17 19 20 22 22 21 21 12 4 11 13 18 17 17 14 11 5 9 4 5 5 7 11 17 9 12 6 5 4 2 4 7 7 6 6 13 22
14 17 17 17 16 16 15 14 15 16 19 20 22 21 19 8 2 4 19 17 16 14 11 4 5 2 5 4 8 7 14 16 10 8 8 6 5 3 5 7 7 10 11 16 20
13 14 15 15 15 16 15 16 15 17 17 18 19 19 15 6 4 8 16 16 14 11 9 6 2 2 4 9 6 8 12 12 11 7 6 7 3 5 8 2 3 3 11 18 18
12 11 12 14 15 17 16 17 17 16 18 17 15 16 8 3 3 12 13 15 11 9 8 5 4 2 6 3 4 11 10 7 11 5 9 4 10 9 9 6 4 2 10 16 17
11 12 14 16 16 17 18 17 17 17 17 12 11 15 2 1 5 10 15 13 15 10 6 4 2 2 2 3 5 5 9 9 6 12 7 8 13 6 9 8 8 7 10 14 17
12 14 17 18 18 20 20 19 18 15 13 10 10 11 2 3 6 11 16 11 11 6 4 4 2 1 1 3 5 5 8 8 14 8 9 9 19 14 19 8 8 8 8 12 15
13 15 16 17 19 21 22 21 10 9 10 7 10 5 2 5 6 14 18 8 10 4 7 6 4 3 3 4 4 4 6 13 10 13 8 12 25 22 21 17 20 18 11 10 15
14 14 16 18 20 21 22 15 8 6 11 7 6 4 3 6 12 14 12 12 16 6 2 3 3 2 3 4 6 7 12 18 13 8 10 18 20 22 18 19 22 22 18 15 13
12 14 15 18 19 21 20 6 5 4 15 5 6 1 7 8 11 13 11 9 5 11 1 1 1 3 3 6 9 12 10 10 12 2 8 15 20 18 9 19 21 22 22 19 16
11 13 14 16 18 20 17 2 6 3 13 4 6 3 6 15 5 8 10 10 5 3 4 4 3 5 4 6 9 9 8 10 7 8 12 13 19 23 22 16 14 20 19 20 19
10 10 11 12 12 15 20 8 3 1 3 4 6 6 7 5 4 8 12 6 5 5 5 2 4 2 2 5 6 10 13 15 13 14 12 16 21 19 22 22 23 20 18 20 19
9 9 10 12 9 9 16 8 5 3 3 3 4 5 5 5 5 6 10 4 5 5 6 5 4 4 7 5 7 11 14 10 7 12 17 16 28 28 26 23 22 23 23 21 19
8 9 8 10 3 7 5 5 2 1 3 10 5 3 6 6 2 3 4 4 2 5 6 4 3 3 4 5 7 9 6 13 12 6 7 9 12 15 21 29 28 24 22 23 22
6 6 5 5 2 3 3 3 3 1 3 11 6 7 13 4 7 3 3 2 5 6 4 2 3 6 8 5 4 4 6 3 8 12 9 16 9 15 19 19 21 26 25 23 23
5 3 1 2 4 3 5 4 0 1 3 5 4 8 11 3 4 5 3 1 2 5 6 11 6 6 11 6 5 1 4 6 7 8 12 19 15 13 17 14 13 17 22 25 24
7 5 3 1 1 4 6 2 2 4 2 5 4 6 8 5 4 4 6 6 4 5 4 8 5 3 8 7 6 5 4 3 6 7 10 10 15 20 10 9 6 5 9 16 20
10 8 6 5 2 2 2 1 4 1 5 2 4 6 3 6 2 6 5 4 2 2 5 6 2 4 6 9 4 12 12 5 7 7 9 16 11 6 2 12 11 12 14 9 12
13 8 5 4 2 3 1 3 4 6 2 2 5 2 2 1 4 6 3 2 1 2 2 4 5 6 9 6 6 5 11 18 11 15 6 7 19 17 9 10 8 7 7 12 6
13 5 2 3 4 2 2 2 4 4 3 3 2 2 3 2 4 3 3 2 2 4 1 1 8 6 3 4 10 13 3 5 7 6 9 9 16 11 3 13 17 10 9 6 4
6 2 1 1 3 3 1 4 4 6 5 6 4 3 6 3 2 2 3 2 4 3 5 3 4 4 3 6 8 6 5 7 5 5 8 8 8 2 2 5 10 10 6 6 3
5 1 1 2 2 1 2 4 3 4 3 5 4 7 6 6 4 4 5 6 7 3 4 5 3 6 12 13 5 5 15 14 8 10 10 12 18 3 4 6 7 12 8 3 0
3 2 1 1 2 2 2 4 4 6 6 6 5 8 6 5 4 8 6 4 8 6 4 3 3 6 7 2 2 5 6 12 16 15 17 15 16 8 7 14 11 7 6 5 4
3 2 1 3 1 3 3 3 3 6 3 5 3 2 5 7 11 5 6 4 6 9 8 4 7 9 11 8 4 12 15 17 12 9 14 17 26 24 25 23 22 13 6 6 6
1 2 0 3 4 3 2 3 3 4 4 6 4 11 9 5 4 9 12 12 10 9 6 4 6 8 16 19 18 20 22 22 16 22 15 24 21 24 21 15 17 14 8 8 8
4 4 2 2 3 6 4 5 8 3 7 5 8 4 12 7 10 12 9 10 11 4 7 5 9 3 12 19 21 23 24 21 22 24 19 26 26 30 19 20 17 13 10 12 11
3 3 2 6 5 4 5 6 7 6 8 6 10 4 9 18 18 17 16 17 16 10 10 6 4 3 11 8 15 12 16 20 19 20 20 17 27 14 15 13 9 10 12 12 12
Wind_Direction
46 43 42 35 26 16 9 9 8 7 3 360 358 358 357 359 21 43 36 339 329 340 344 328 317 330 261 210 207 254 228 230 224 207 211 167 222 159 322 227 189 151 31 64 149
42 37 35 30 25 17 9 9 5 2 358 356 354 356 352 0 47 52 354 342 340 346 351 352 340 337 219 206 175 222 228 232 228 218 207 184 229 185 230 197 200 171 93 134 152
37 33 28 23 15 9 7 7 0 355 353 353 350 351 349 357 170 18 350 348 346 347 337 315 297 270 233 226 184 190 232 234 232 213 208 213 216 195 234 228 217 206 160 160 166
31 27 22 13 6 5 360 355 350 345 343 343 345 349 345 11 304 351 356 358 349 347 355 4 344 215 225 213 219 219 232 241 241 205 193 212 204 214 223 271 82 114 161 167 178
29 25 14 5 5 1 353 348 345 337 336 338 344 351 1 10 16 0 3 9 11 12 24 13 51 324 221 277 277 235 219 244 243 230 218 181 214 231 226 211 200 146 175 185 188
21 13 8 7 4 353 358 340 337 339 334 340 346 352 9 272 342 356 3 3 14 17 12 35 51 31 297 281 282 330 281 263 281 230 223 213 231 207 224 233 226 207 199 201 197
11 10 7 4 358 357 360 353 340 339 343 344 346 352 24 42 352 347 345 340 1 7 350 327 329 282 347 257 338 291 281 245 232 231 230 213 241 230 238 206 213 213 210 207 208
8 7 9 4 358 358 357 349 355 7 7 339 346 354 70 0 6 346 340 340 343 308 320 289 307 292 249 317 289 252 235 238 206 205 217 206 242 225 233 230 239 238 224 210 213
13 19 11 6 2 360 355 349 5 35 353 346 0 11 56 352 350 344 344 329 328 337 341 273 264 257 205 224 236 222 245 229 239 215 228 212 242 238 231 230 239 241 232 226 221
9 9 5 359 0 2 356 359 22 55 10 12 23 281 33 328 324 328 333 336 323 333 302 38 180 215 211 207 228 227 226 223 223 182 270 247 243 249 237 228 233 237 238 229 229
347 349 352 355 356 8 14 24 5 36 33 36 323 305 295 325 337 346 344 331 333 52 8 12 228 230 252 261 291 283 257 253 265 277 322 268 257 248 248 236 236 242 238 237 225
326 327 336 348 351 13 46 69 71 91 16 333 298 281 277 319 314 345 358 8 7 40 343 291 281 70 310 267 274 262 260 256 269 276 277 273 269 264 259 251 245 240 236 236 237
330 328 334 343 350 18 60 75 112 130 67 347 314 305 316 327 337 330 354 346 6 6 5 313 9 281 318 281 250 247 255 256 286 304 272 275 277 261 257 250 248 246 245 241 236
321 322 334 344 7 4 51 39 77 168 86 355 350 15 320 308 264 316 349 341 338 337 335 295 330 311 315 286 244 264 251 247 264 285 264 197 275 250 231 239 238 238 237 238 235
297 313 335 20 12 25 345 354 333 252 34 341 312 316 325 331 328 44 333 297 307 316 299 350 272 274 273 256 205 273 324 266 252 257 293 248 260 260 242 253 242 234 234 235 234
256 258 315 10 52 1 328 327 299 23 356 340 311 346 347 352 352 310 329 265 274 285 243 263 286 268 247 261 223 268 279 242 255 259 250 237 229 265 235 248 258 235 239 235 232
213 189 151 83 87 337 326 320 55 74 32 321 324 342 330 318 325 351 334 334 339 323 336 304 234 248 228 246 198 204 201 221 210 206 244 200 213 249 282 293 259 282 276 257 236
186 169 114 105 52 352 318 64 72 78 244 350 300 324 316 348 322 326 325 343 50 302 292 327 311 194 175 234 276 211 208 216 234 212 258 207 231 234 324 247 265 288 269 272 256
167 144 117 61 18 336 109 66 192 198 184 261 302 317 301 299 318 331 343 287 269 360 357 314 265 304 232 225 225 183 215 241 289 281 264 231 245 264 262 278 265 272 275 255 257
157 126 66 38 10 12 77 230 195 188 183 202 248 254 272 298 320 333 316 197 204 178 305 312 289 273 305 201 235 241 357 207 207 244 246 228 244 245 228 237 249 246 260 260 303
137 112 122 347 29 43 213 223 232 225 200 210 225 226 241 273 226 267 275 260 239 203 209 214 233 271 299 222 255 188 218 222 287 254 265 261 241 143 4 4 321 310 321 323 316
134 165 120 173 75 357 207 193 212 211 172 244 256 238 229 192 237 245 246 240 193 218 257 198 291 278 265 269 283 279 254 235 236 242 239 264 265 277 187 359 333 318 326 309 223
114 111 44 156 193 199 295 266 261 196 201 186 233 222 211 223 244 218 224 257 229 216 232 183 253 300 291 172 163 248 273 265 261 261 253 254 259 253 298 296 304 312 306 287 218
136 161 38 72 357 144 182 215 253 218 231 196 230 208 201 242 233 259 233 258 208 221 224 215 233 229 257 292 316 288 283 276 278 285 279 259 265 266 272 278 288 279 243 225 218
59 184 38 193 206 165 177 181 197 239 214 218 230 210 198 227 231 235 252 257 249 239 231 222 251 241 256 269 273 267 266 269 252 252 256 270 272 273 271 289 283 286 224 202 200
153 155 110 120 142 145 186 223 210 221 184 218 231 224 210 225 216 272 260 258 262 228 212 196 260 254 282 275 264 266 265 263 259 258 249 251 267 261 278 274 267 251 221 207 196
163 131 179 156 168 158 214 214 218 177 229 214 217 239 232 242 252 257 265 273 267 246 229 237 254 268 283 317 314 276 251 246 250 241 231 234 239 275 270 282 269 242 225 219 197